EW9525 Weather Reports


time (UTC)temp
C
wind
direction
speed
KPH
gust
KPH
rain 1hr
cm
rain 24hr
cm
rain mn
cm
humidity
%
barometer
mb
20240222113059 3 323 14.5 17.7 0.00 0.00 0.00 90 1013.0
20240222111556 3 339 16.1 24.1 0.00 0.00 0.00 90 1012.7
20240222110056 4 331 16.1 24.1 0.00 0.00 0.00 90 1012.6
20240222104554 4 343 17.7 24.1 0.00 0.00 0.00 91 1012.6
20240222103056 3 339 12.9 20.9 0.00 0.00 0.00 91 1012.6
20240222101554 3 322 14.5 24.1 0.00 0.00 0.00 90 1012.5
20240222100054 4 326 16.1 22.5 0.00 0.00 0.00 90 1012.3
20240222094544 4 323 17.7 24.1 0.00 0.00 0.00 90 1012.0
20240222093042 4 316 14.5 20.9 0.00 0.00 0.00 89 1011.9
20240222091542 5 306 14.5 19.3 0.00 0.00 0.00 88 1011.9
20240222090036 5 306 9.7 16.1 0.00 0.00 0.00 87 1011.8
20240222084535 5 279 0.0 8.0 0.00 0.00 0.00 87 1011.8
20240222083034 5 295 0.0 3.2 0.00 0.00 0.00 85 1011.8
20240222081529 5 285 0.0 8.0 0.00 0.00 0.00 83 1011.5
20240222080028 6 267 0.0 1.6 0.00 0.00 0.00 83 1011.4
20240222074526 6 343 0.0 11.3 0.00 0.00 0.00 82 1010.9
20240222073025 7 60 9.7 17.7 0.00 0.00 0.00 80 1010.7
20240222071519 7 20 12.9 19.3 0.00 0.00 0.00 80 1011.7
20240222070017 7 343 12.9 22.5 0.00 0.00 0.00 79 1011.8
20240222064528 7 349 17.7 29.0 0.00 0.00 0.00 77 1011.9
20240222063012 7 350 24.1 35.4 0.00 0.00 0.00 75 1011.9
20240222061510 7 347 27.4 40.2 0.00 0.00 0.00 75 1012.0
20240222060010 8 324 30.6 40.2 0.00 0.00 0.00 74 1012.0
20240222054505 8 353 29.0 43.5 0.00 0.00 0.00 75 1011.8
20240222053005 7 342 33.8 51.5 0.00 0.00 0.00 74 1011.4
20240222051506 8 342 33.8 49.9 0.00 0.00 0.00 74 1011.3
20240222050003 8 345 37.0 56.3 0.00 0.00 0.00 73 1010.9
20240222044503 8 338 37.0 49.9 0.00 0.00 0.00 71 1010.6
20240222043007 8 11 33.8 49.9 0.00 0.00 0.00 74 1010.2
20240222041503 8 345 35.4 51.5 0.00 0.00 0.00 76 1010.0
20240222040001 9 334 30.6 43.5 0.00 0.00 0.00 72 1009.9
20240222034619 10 359 22.5 40.2 0.00 0.00 0.00 59 1009.8
20240222033107 10 331 9.7 16.1 0.00 0.00 0.00 52 1009.6
20240222031557 10 323 11.3 14.5 0.00 0.00 0.00 54 1009.7
20240222030100 10 324 8.0 11.3 0.00 0.00 0.00 54 1009.6
20240222024557 10 356 0.0 3.2 0.00 0.00 0.00 51 1009.1
20240222023055 10 271 3.2 9.7 0.00 0.00 0.00 54 1009.0
20240222021554 10 288 4.8 9.7 0.00 0.00 0.00 51 1008.6
20240222020054 10 124 0.0 3.2 0.00 0.00 0.00 49 1008.2
20240222014556 11 43 0.0 1.6 0.00 0.00 0.00 49 1008.1
20240222014524 11 43 0.0 0.0 0.00 0.00 0.00 49 1008.1
20240222013053 10 43 0.0 0.0 0.00 0.00 0.00 51 1008.1
20240222011559 11 18 1.6 3.2 0.00 0.00 0.00 49 1008.1
20240222010051 11 170 3.2 4.8 0.00 0.00 0.00 48 1008.1
20240222004551 12 137 0.0 3.2 0.00 0.00 0.00 44 1007.6
20240222003051 12 94 0.0 1.6 0.00 0.00 0.00 46 1007.4
20240222001549 12 94 0.0 1.6 0.00 0.00 0.00 43 1007.2
20240222000049 13 94 0.0 1.6 0.00 0.00 0.00 42 1007.1
20240221234549 14 94 0.0 0.0 0.00 0.00 0.00 41 1007.0
20240221233050 15 94 0.0 0.0 0.00 0.00 0.00 38 1006.9
20240221231556 15 94 0.0 3.2 0.00 0.00 0.00 39 1006.9
20240221230047 16 101 1.6 6.4 0.00 0.00 0.00 36 1006.8
20240221224546 16 85 4.8 9.7 0.00 0.00 0.00 34 1006.8
20240221223046 16 70 6.4 9.7 0.00 0.00 0.00 34 1006.6
20240221221545 17 105 4.8 9.7 0.00 0.00 0.00 34 1006.8
20240221220044 17 77 3.2 8.0 0.00 0.00 0.00 35 1006.7
20240221214547 16 89 1.6 8.0 0.00 0.00 0.00 36 1006.9
20240221213045 17 78 4.8 8.0 0.00 0.00 0.00 35 1006.7
20240221211544 17 130 3.2 8.0 0.00 0.00 0.00 34 1007.0
20240221210048 17 126 3.2 9.7 0.00 0.00 0.00 34 1007.3
20240221204536 17 98 3.2 8.0 0.00 0.00 0.00 35 1007.5
20240221203039 16 127 0.0 9.7 0.00 0.00 0.00 35 1008.0
20240221201533 16 79 4.8 11.3 0.00 0.00 0.00 35 1008.1
20240221200031 16 15 8.0 16.1 0.00 0.00 0.00 35 1008.3
20240221194534 16 63 9.7 16.1 0.00 0.00 0.00 36 1008.6
20240221193026 16 18 4.8 16.1 0.00 0.00 0.00 35 1009.0
20240221191524 16 25 6.4 12.9 0.00 0.00 0.00 34 1009.6
20240221190031 16 51 6.4 11.3 0.00 0.00 0.00 34 1010.0
20240221184524 16 32 4.8 11.3 0.00 0.00 0.00 34 1010.4
20240221183014 15 104 0.0 8.0 0.00 0.00 0.00 34 1010.8
20240221181510 15 359 3.2 8.0 0.00 0.00 0.00 37 1011.3
20240221180015 15 10 1.6 9.7 0.00 0.00 0.00 37 1011.6
20240221174506 15 63 0.0 6.4 0.00 0.00 0.00 40 1011.8
20240221173002 14 321 0.0 6.4 0.00 0.00 0.00 42 1011.9
20240221171559 13 143 1.6 6.4 0.00 0.00 0.00 44 1012.2
20240221170055 12 72 3.2 6.4 0.00 0.00 0.00 45 1012.2
20240221164554 12 18 0.0 4.8 0.00 0.00 0.00 46 1012.5
20240221163049 11 35 0.0 1.6 0.00 0.00 0.00 49 1012.6
20240221161548 11 44 0.0 6.4 0.00 0.00 0.00 52 1012.7
20240221160040 10 18 1.6 8.0 0.00 0.00 0.00 53 1012.8
20240221154539 8 325 1.6 8.0 0.00 0.00 0.00 57 1013.1
20240221153036 7 328 4.8 11.3 0.00 0.00 0.00 62 1013.3
20240221151528 6 328 6.4 12.9 0.00 0.00 0.00 65 1013.3
20240221150023 5 313 8.0 12.9 0.00 0.00 0.00 68 1013.3
20240221144522 3 300 1.6 9.7 0.00 0.00 0.00 73 1013.5
20240221143021 2 301 4.8 11.3 0.00 0.00 0.00 74 1013.3
20240221141521 2 285 3.2 9.7 0.00 0.00 0.00 76 1013.5
20240221140020 1 294 4.8 12.9 0.00 0.00 0.00 77 1013.4
20240221134520 1 320 9.7 19.3 0.00 0.00 0.00 78 1013.4
20240221133019 0 319 8.0 11.3 0.00 0.00 0.00 78 1013.4
20240221131518 0 311 6.4 9.7 0.00 0.00 0.00 77 1013.3
20240221130020 1 316 6.4 11.3 0.00 0.00 0.00 76 1013.1
20240221124521 1 314 8.0 12.9 0.00 0.00 0.00 77 1013.1
20240221123016 0 321 8.0 11.3 0.00 0.00 0.00 77 1012.9
20240221121516 1 322 6.4 9.7 0.00 0.00 0.00 75 1013.0
20240221120017 1 324 6.4 8.0 0.00 0.00 0.00 72 1013.0
20240221114512 2 330 6.4 8.0 0.00 0.00 0.00 73 1013.2